Retour au catalogue

INTELSAT 30

ActifCommunicationsGEO
NORAD 40271·PAYLOAD· XX

Lancé Oct 16, 2014 depuis Guiana Space Centre

Loading…

TLE

FraisSource: CelesTrak SupGP

Époque: Sep 14, 2026, 00:00 UTC

1 40271C 14062A   26257.00000000 -.00000061  00000+0  00000+0 0  2572
2 40271   0.0074  94.0029 0001675 321.6456 202.2955  1.00271945    12

Suivez INTELSAT 30 en temps réel avec AllMySat

Download on the App Store